Time,TemperatureF,DewpointF,PressureIn,WindDirection,WindDirectionDegrees,WindSpeedMPH,WindSpeedGustMPH,Humidity,HourlyPrecipIn,Conditions,Clouds,dailyrainin,SoftwareType,DateUTC
2013-01-09 00:02:00,28.0,23.0,30.22,SW,219,0.0,0.0,80,0.00,,,0.00,,2013-01-09 06:02:00,
2013-01-09 00:12:00,28.0,23.0,30.22,SW,219,0.0,0.0,80,0.00,,,0.00,,2013-01-09 06:12:00,
2013-01-09 00:22:00,27.0,22.0,30.22,SW,219,0.0,0.0,81,0.00,,,0.00,,2013-01-09 06:22:00,
2013-01-09 00:32:00,27.0,22.0,30.24,SW,219,0.0,0.0,81,0.00,,,0.00,,2013-01-09 06:32:00,
2013-01-09 00:42:00,27.0,22.0,30.24,SW,219,0.0,0.0,81,0.00,,,0.00,,2013-01-09 06:42:00,
2013-01-09 00:52:00,26.0,21.0,30.25,SW,219,0.0,0.0,82,0.00,,,0.00,,2013-01-09 06:52:00,
2013-01-09 01:02:00,26.0,22.0,30.26,WSW,246,0.0,1.0,83,0.00,,,0.00,,2013-01-09 07:02:00,
2013-01-09 01:12:00,26.0,22.0,30.26,WSW,246,0.0,1.0,83,0.00,,,0.00,,2013-01-09 07:12:00,
2013-01-09 01:22:00,26.0,21.0,30.26,NNE,31,0.0,0.0,82,0.00,,,0.00,,2013-01-09 07:22:00,
2013-01-09 01:32:00,26.0,21.0,30.27,WSW,248,0.0,0.0,82,0.00,,,0.00,,2013-01-09 07:32:00,
2013-01-09 01:42:00,26.0,21.0,30.27,WSW,248,0.0,0.0,82,0.00,,,0.00,,2013-01-09 07:42:00,
2013-01-09 01:52:00,26.0,21.0,30.26,WSW,248,0.0,0.0,82,0.00,,,0.00,,2013-01-09 07:52:00,
2013-01-09 02:02:00,25.0,21.0,30.26,WSW,248,0.0,0.0,83,0.00,,,0.00,,2013-01-09 08:02:00,
2013-01-09 02:12:00,25.0,21.0,30.26,WSW,248,0.0,0.0,83,0.00,,,0.00,,2013-01-09 08:12:00,
2013-01-09 02:22:00,24.0,20.0,30.27,WSW,248,0.0,0.0,83,0.00,,,0.00,,2013-01-09 08:22:00,
2013-01-09 02:32:00,24.0,20.0,30.27,WSW,248,0.0,0.0,84,0.00,,,0.00,,2013-01-09 08:32:00,
2013-01-09 02:42:00,24.0,20.0,30.27,WSW,248,0.0,0.0,84,0.00,,,0.00,,2013-01-09 08:42:00,
2013-01-09 02:53:00,23.0,19.0,30.28,WSW,248,0.0,0.0,84,0.00,,,0.00,,2013-01-09 08:53:00,
2013-01-09 03:02:00,23.0,19.0,30.28,WSW,248,0.0,0.0,84,0.00,,,0.00,,2013-01-09 09:02:00,
2013-01-09 03:12:00,23.0,19.0,30.28,WSW,248,0.0,0.0,84,0.00,,,0.00,,2013-01-09 09:12:00,
2013-01-09 03:22:00,22.0,18.0,30.28,WSW,248,0.0,0.0,85,0.00,,,0.00,,2013-01-09 09:22:00,
2013-01-09 03:32:00,22.0,18.0,30.28,WSW,248,0.0,0.0,85,0.00,,,0.00,,2013-01-09 09:32:00,
2013-01-09 03:42:00,22.0,18.0,30.28,WSW,248,0.0,0.0,85,0.00,,,0.00,,2013-01-09 09:42:00,
2013-01-09 03:53:00,21.0,17.0,30.28,WSW,248,0.0,0.0,85,0.00,,,0.00,,2013-01-09 09:53:00,
2013-01-09 04:02:00,21.0,17.0,30.27,WSW,248,0.0,0.0,86,0.00,,,0.00,,2013-01-09 10:02:00,
2013-01-09 04:12:00,21.0,17.0,30.27,WSW,248,0.0,0.0,86,0.00,,,0.00,,2013-01-09 10:12:00,
2013-01-09 04:22:00,21.0,17.0,30.27,WSW,248,0.0,0.0,86,0.00,,,0.00,,2013-01-09 10:22:00,
2013-01-09 04:32:00,20.0,17.0,30.26,WSW,248,0.0,0.0,87,0.00,,,0.00,,2013-01-09 10:32:00,
2013-01-09 04:42:00,20.0,17.0,30.26,WSW,248,0.0,0.0,87,0.00,,,0.00,,2013-01-09 10:42:00,
2013-01-09 04:52:00,20.0,16.0,30.26,WSW,248,0.0,0.0,86,0.00,,,0.00,,2013-01-09 10:52:00,
2013-01-09 05:02:00,19.0,16.0,30.26,WSW,248,0.0,0.0,86,0.00,,,0.00,,2013-01-09 11:02:00,
2013-01-09 05:12:00,19.0,16.0,30.26,WSW,248,0.0,0.0,86,0.00,,,0.00,,2013-01-09 11:12:00,
2013-01-09 05:22:00,19.0,16.0,30.26,WSW,248,0.0,0.0,87,0.00,,,0.00,,2013-01-09 11:22:00,
2013-01-09 05:32:00,19.0,16.0,30.26,West,263,0.0,0.0,87,0.00,,,0.00,,2013-01-09 11:32:00,
2013-01-09 05:42:00,19.0,16.0,30.26,West,263,0.0,0.0,87,0.00,,,0.00,,2013-01-09 11:42:00,
2013-01-09 05:53:00,19.0,16.0,30.25,NW,311,0.0,0.0,87,0.00,,,0.00,,2013-01-09 11:53:00,
2013-01-09 06:03:00,19.0,16.0,30.24,NW,306,0.0,0.0,87,0.00,,,0.00,,2013-01-09 12:03:00,
2013-01-09 06:12:00,19.0,16.0,30.24,NW,306,0.0,0.0,87,0.00,,,0.00,,2013-01-09 12:12:00,
2013-01-09 06:23:00,18.0,14.0,30.24,NW,306,0.0,0.0,85,0.00,,,0.00,,2013-01-09 12:23:00,
2013-01-09 06:33:00,18.0,15.0,30.28,South,181,0.0,0.0,87,0.00,,,0.00,,2013-01-09 12:33:00,
2013-01-09 06:43:00,18.0,15.0,30.28,South,181,0.0,0.0,87,0.00,,,0.00,,2013-01-09 12:43:00,
2013-01-09 06:53:00,18.0,15.0,30.28,South,181,0.0,0.0,87,0.00,,,0.00,,2013-01-09 12:53:00,
2013-01-09 07:02:00,18.0,15.0,30.29,South,181,0.0,0.0,86,0.00,,,0.00,,2013-01-09 13:02:00,
2013-01-09 07:12:00,18.0,15.0,30.29,South,181,0.0,0.0,86,0.00,,,0.00,,2013-01-09 13:12:00,
2013-01-09 07:23:00,17.0,13.0,30.29,SW,229,0.0,0.0,85,0.00,,,0.00,,2013-01-09 13:23:00,
2013-01-09 07:33:00,17.0,14.0,30.30,SW,229,0.0,0.0,86,0.00,,,0.00,,2013-01-09 13:33:00,
2013-01-09 07:43:00,17.0,14.0,30.30,SW,229,0.0,0.0,86,0.00,,,0.00,,2013-01-09 13:43:00,
2013-01-09 07:53:00,16.0,12.0,30.32,SW,229,0.0,0.0,85,0.00,,,0.00,,2013-01-09 13:53:00,
2013-01-09 08:03:00,16.0,13.0,30.34,SW,229,0.0,0.0,86,0.00,,,0.00,,2013-01-09 14:03:00,
2013-01-09 08:12:00,16.0,13.0,30.34,SW,229,0.0,0.0,86,0.00,,,0.00,,2013-01-09 14:12:00,
2013-01-09 08:22:00,16.0,13.0,30.35,SW,229,0.0,0.0,86,0.00,,,0.00,,2013-01-09 14:22:00,
2013-01-09 08:33:00,16.0,13.0,30.37,SW,229,0.0,0.0,86,0.00,,,0.00,,2013-01-09 14:33:00,
2013-01-09 08:43:00,16.0,13.0,30.37,SW,229,0.0,0.0,86,0.00,,,0.00,,2013-01-09 14:43:00,
2013-01-09 08:53:00,16.0,13.0,30.37,NNW,332,0.0,0.0,88,0.00,,,0.00,,2013-01-09 14:53:00,
2013-01-09 09:03:00,17.0,14.0,30.38,NNW,332,0.0,0.0,88,0.00,,,0.00,,2013-01-09 15:03:00,
2013-01-09 09:12:00,17.0,14.0,30.38,NNW,332,0.0,0.0,88,0.00,,,0.00,,2013-01-09 15:12:00,
2013-01-09 09:23:00,19.0,16.0,30.38,NNW,332,0.0,0.0,89,0.00,,,0.00,,2013-01-09 15:23:00,
2013-01-09 09:33:00,21.0,19.0,30.39,NNW,332,0.0,0.0,90,0.00,,,0.00,,2013-01-09 15:33:00,
2013-01-09 09:42:00,21.0,19.0,30.39,NNW,332,0.0,0.0,90,0.00,,,0.00,,2013-01-09 15:42:00,
2013-01-09 09:53:00,25.0,22.0,30.38,NNW,332,0.0,0.0,88,0.00,,,0.00,,2013-01-09 15:53:00,
2013-01-09 10:03:00,29.0,25.0,30.38,NNW,332,0.0,0.0,85,0.00,,,0.00,,2013-01-09 16:03:00,
2013-01-09 10:12:00,29.0,25.0,30.38,NNW,332,0.0,0.0,85,0.00,,,0.00,,2013-01-09 16:12:00,
2013-01-09 10:23:00,32.0,26.0,30.38,WNW,299,0.0,0.0,78,0.00,,,0.00,,2013-01-09 16:23:00,
2013-01-09 10:33:00,35.0,27.0,30.38,South,184,0.0,0.0,73,0.00,,,0.00,,2013-01-09 16:33:00,
2013-01-09 10:43:00,35.0,27.0,30.38,South,184,0.0,0.0,73,0.00,,,0.00,,2013-01-09 16:43:00,
2013-01-09 10:53:00,37.0,27.0,30.38,SSW,213,0.0,1.0,67,0.00,,,0.00,,2013-01-09 16:53:00,
2013-01-09 11:02:00,38.0,27.0,30.39,SW,215,0.0,5.0,64,0.00,,,0.00,,2013-01-09 17:02:00,
2013-01-09 11:12:00,38.0,27.0,30.39,SW,215,0.0,5.0,64,0.00,,,0.00,,2013-01-09 17:12:00,
2013-01-09 11:23:00,40.0,27.0,30.38,WSW,239,0.0,4.0,60,0.00,,,0.00,,2013-01-09 17:23:00,
2013-01-09 11:32:00,42.0,29.0,30.37,WSW,244,0.0,5.0,59,0.00,,,0.00,,2013-01-09 17:32:00,
2013-01-09 11:43:00,42.0,29.0,30.37,WSW,244,0.0,5.0,59,0.00,,,0.00,,2013-01-09 17:43:00,
2013-01-09 11:53:00,42.0,29.0,30.37,West,259,1.0,5.0,60,0.00,,,0.00,,2013-01-09 17:53:00,
2013-01-09 12:03:00,43.0,28.0,30.35,SW,215,0.0,5.0,56,0.00,,,0.00,,2013-01-09 18:03:00,
2013-01-09 12:12:00,43.0,28.0,30.35,SW,215,0.0,5.0,56,0.00,,,0.00,,2013-01-09 18:12:00,
2013-01-09 12:23:00,46.0,27.0,30.35,SSW,204,5.0,11.0,48,0.00,,,0.00,,2013-01-09 18:23:00,
2013-01-09 12:33:00,46.0,27.0,30.34,SSW,200,3.0,9.0,48,0.00,,,0.00,,2013-01-09 18:33:00,
2013-01-09 12:43:00,46.0,27.0,30.34,SSW,200,3.0,9.0,48,0.00,,,0.00,,2013-01-09 18:43:00,
2013-01-09 12:53:00,46.0,27.0,30.34,SSW,200,3.0,9.0,48,0.00,,,0.00,,2013-01-09 18:53:00,
2013-01-09 13:03:00,47.0,27.0,30.33,SSW,205,3.0,7.0,46,0.00,,,0.00,,2013-01-09 19:03:00,
2013-01-09 13:12:00,47.0,27.0,30.33,SSW,205,3.0,7.0,46,0.00,,,0.00,,2013-01-09 19:12:00,
2013-01-09 13:22:00,48.0,27.0,30.31,South,176,6.0,10.0,44,0.00,,,0.00,,2013-01-09 19:22:00,
2013-01-09 13:33:00,49.0,27.0,30.30,SW,221,5.0,10.0,43,0.00,,,0.00,,2013-01-09 19:33:00,
2013-01-09 13:43:00,49.0,27.0,30.30,SW,221,5.0,10.0,43,0.00,,,0.00,,2013-01-09 19:43:00,
2013-01-09 13:52:00,50.0,28.0,30.29,SSW,209,2.0,8.0,42,0.00,,,0.00,,2013-01-09 19:52:00,
2013-01-09 14:03:00,51.0,27.0,30.27,SSW,192,6.0,12.0,39,0.00,,,0.00,,2013-01-09 20:03:00,
2013-01-09 14:12:00,51.0,27.0,30.27,SSW,192,6.0,12.0,39,0.00,,,0.00,,2013-01-09 20:12:00,
2013-01-09 14:23:00,51.0,26.0,30.26,SSW,193,6.0,12.0,37,0.00,,,0.00,,2013-01-09 20:23:00,
2013-01-09 14:33:00,52.0,27.0,30.26,WSW,240,4.0,11.0,37,0.00,,,0.00,,2013-01-09 20:33:00,
2013-01-09 14:43:00,52.0,27.0,30.26,WSW,240,4.0,11.0,37,0.00,,,0.00,,2013-01-09 20:43:00,
2013-01-09 14:52:00,53.0,27.0,30.26,SSW,196,5.0,13.0,36,0.00,,,0.00,,2013-01-09 20:52:00,
2013-01-09 15:03:00,53.0,26.0,30.25,WSW,253,5.0,12.0,35,0.00,,,0.00,,2013-01-09 21:03:00,
2013-01-09 15:13:00,53.0,26.0,30.25,WSW,253,5.0,12.0,35,0.00,,,0.00,,2013-01-09 21:13:00,
2013-01-09 15:22:00,53.0,27.0,30.25,SSW,200,3.0,9.0,37,0.00,,,0.00,,2013-01-09 21:22:00,
2013-01-09 15:33:00,53.0,26.0,30.25,SSW,193,5.0,13.0,35,0.00,,,0.00,,2013-01-09 21:33:00,
2013-01-09 15:43:00,53.0,26.0,30.25,SSW,193,5.0,13.0,35,0.00,,,0.00,,2013-01-09 21:43:00,
2013-01-09 15:52:00,53.0,26.0,30.25,South,190,4.0,10.0,35,0.00,,,0.00,,2013-01-09 21:52:00,
2013-01-09 16:03:00,53.0,26.0,30.25,WSW,257,4.0,10.0,35,0.00,,,0.00,,2013-01-09 22:03:00,
2013-01-09 16:12:00,53.0,26.0,30.25,WSW,257,4.0,10.0,35,0.00,,,0.00,,2013-01-09 22:12:00,
2013-01-09 16:23:00,54.0,27.0,30.24,SE,144,0.0,5.0,35,0.00,,,0.00,,2013-01-09 22:23:00,
2013-01-09 16:33:00,53.0,26.0,30.24,SSW,201,1.0,4.0,35,0.00,,,0.00,,2013-01-09 22:33:00,
2013-01-09 16:43:00,53.0,26.0,30.24,SSW,201,1.0,4.0,35,0.00,,,0.00,,2013-01-09 22:43:00,
2013-01-09 16:52:00,53.0,26.0,30.24,SSE,168,2.0,4.0,35,0.00,,,0.00,,2013-01-09 22:52:00,
2013-01-09 17:02:00,53.0,26.0,30.24,SSE,168,2.0,4.0,35,0.00,,,0.00,,2013-01-09 23:02:00,
2013-01-09 17:13:00,53.0,26.0,30.24,SSE,168,2.0,4.0,35,0.00,,,0.00,,2013-01-09 23:13:00,
2013-01-09 17:22:00,52.0,27.0,30.23,SSW,192,0.0,1.0,38,0.00,,,0.00,,2013-01-09 23:22:00,
2013-01-09 17:33:00,50.0,27.0,30.22,WSW,244,0.0,1.0,40,0.00,,,0.00,,2013-01-09 23:33:00,
2013-01-09 17:43:00,50.0,27.0,30.22,WSW,244,0.0,1.0,40,0.00,,,0.00,,2013-01-09 23:43:00,
2013-01-09 17:52:00,50.0,27.0,30.22,WSW,244,0.0,1.0,40,0.00,,,0.00,,2013-01-09 23:52:00,
2013-01-09 18:03:00,46.0,27.0,30.22,South,185,0.0,2.0,47,0.00,,,0.00,,2013-01-10 00:03:00,
2013-01-09 18:12:00,46.0,27.0,30.22,South,185,0.0,2.0,47,0.00,,,0.00,,2013-01-10 00:12:00,
2013-01-09 18:22:00,43.0,27.0,30.21,South,185,0.0,0.0,52,0.00,,,0.00,,2013-01-10 00:22:00,
2013-01-09 18:32:00,41.0,27.0,30.21,South,185,0.0,0.0,57,0.00,,,0.00,,2013-01-10 00:32:00,
2013-01-09 18:42:00,41.0,27.0,30.21,South,185,0.0,0.0,57,0.00,,,0.00,,2013-01-10 00:42:00,
2013-01-09 18:52:00,39.0,27.0,30.21,South,185,0.0,0.0,61,0.00,,,0.00,,2013-01-10 00:52:00,
2013-01-09 19:02:00,38.0,27.0,30.21,South,185,0.0,0.0,64,0.00,,,0.00,,2013-01-10 01:02:00,
2013-01-09 19:12:00,38.0,27.0,30.21,South,185,0.0,0.0,64,0.00,,,0.00,,2013-01-10 01:12:00,
2013-01-09 19:22:00,36.0,26.0,30.21,South,186,0.0,2.0,67,0.00,,,0.00,,2013-01-10 01:22:00,
2013-01-09 19:33:00,35.0,26.0,30.22,ENE,65,0.0,3.0,70,0.00,,,0.00,,2013-01-10 01:33:00,
2013-01-09 19:43:00,35.0,26.0,30.22,ENE,65,0.0,3.0,70,0.00,,,0.00,,2013-01-10 01:43:00,
2013-01-09 19:52:00,34.0,26.0,30.21,NE,36,0.0,1.0,73,0.00,,,0.00,,2013-01-10 01:52:00,
2013-01-09 20:03:00,33.0,26.0,30.22,NE,36,0.0,0.0,76,0.00,,,0.00,,2013-01-10 02:03:00,
2013-01-09 20:12:00,33.0,26.0,30.22,NE,36,0.0,0.0,76,0.00,,,0.00,,2013-01-10 02:12:00,
2013-01-09 20:22:00,33.0,27.0,30.23,NE,36,0.0,2.0,77,0.00,,,0.00,,2013-01-10 02:22:00,
2013-01-09 20:32:00,32.0,26.0,30.23,NE,36,0.0,2.0,78,0.00,,,0.00,,2013-01-10 02:32:00,
2013-01-09 20:42:00,32.0,26.0,30.23,NE,36,0.0,2.0,78,0.00,,,0.00,,2013-01-10 02:42:00,
2013-01-09 20:52:00,32.0,26.0,30.23,NE,36,0.0,2.0,78,0.00,,,0.00,,2013-01-10 02:52:00,
2013-01-09 21:03:00,33.0,27.0,30.22,NE,34,0.0,2.0,79,0.00,,,0.00,,2013-01-10 03:03:00,
2013-01-09 21:12:00,33.0,27.0,30.22,NE,34,0.0,2.0,79,0.00,,,0.00,,2013-01-10 03:12:00,
2013-01-09 21:22:00,34.0,27.0,30.22,NNE,13,1.0,5.0,74,0.00,,,0.00,,2013-01-10 03:22:00,
2013-01-09 21:33:00,35.0,29.0,30.22,NNE,13,0.0,4.0,78,0.00,,,0.00,,2013-01-10 03:33:00,
2013-01-09 21:42:00,35.0,29.0,30.22,NNE,13,0.0,4.0,78,0.00,,,0.00,,2013-01-10 03:42:00,
2013-01-09 21:52:00,36.0,29.0,30.22,NNW,343,0.0,2.0,76,0.00,,,0.00,,2013-01-10 03:52:00,
2013-01-09 22:02:00,36.0,29.0,30.22,SE,146,0.0,3.0,76,0.00,,,0.00,,2013-01-10 04:02:00,
2013-01-09 22:12:00,36.0,29.0,30.22,SE,146,0.0,3.0,76,0.00,,,0.00,,2013-01-10 04:12:00,
2013-01-09 22:22:00,36.0,29.0,30.21,SE,140,1.0,5.0,75,0.00,,,0.00,,2013-01-10 04:22:00,
2013-01-09 22:32:00,36.0,29.0,30.21,SE,126,0.0,4.0,74,0.00,,,0.00,,2013-01-10 04:32:00,
2013-01-09 22:42:00,36.0,29.0,30.21,SE,126,0.0,4.0,74,0.00,,,0.00,,2013-01-10 04:42:00,
2013-01-09 22:52:00,36.0,28.0,30.21,SE,133,0.0,3.0,73,0.00,,,0.00,,2013-01-10 04:52:00,
2013-01-09 23:03:00,36.0,29.0,30.22,SE,146,1.0,4.0,74,0.00,,,0.00,,2013-01-10 05:03:00,
2013-01-09 23:12:00,36.0,29.0,30.22,SE,146,1.0,4.0,74,0.00,,,0.00,,2013-01-10 05:12:00,
2013-01-09 23:22:00,36.0,29.0,30.21,ESE,122,0.0,3.0,75,0.00,,,0.00,,2013-01-10 05:22:00,
2013-01-09 23:33:00,35.0,28.0,30.21,SE,145,0.0,2.0,76,0.00,,,0.00,,2013-01-10 05:33:00,
2013-01-09 23:42:00,35.0,28.0,30.21,SE,145,0.0,2.0,76,0.00,,,0.00,,2013-01-10 05:42:00,
2013-01-09 23:52:00,36.0,29.0,30.21,SE,145,1.0,4.0,75,0.00,,,0.00,,2013-01-10 05:52:00,